Year,Month,Day,Hour,Minute,Value (Times are PST for temperature in C)
2013,04,30,00,00,7.30
2013,04,30,00,01,7.30
2013,04,30,00,02,7.20
2013,04,30,00,03,7.20
2013,04,30,00,04,7.20
2013,04,30,00,05,7.20
2013,04,30,00,06,7.20
2013,04,30,00,07,7.20
2013,04,30,00,08,7.20
2013,04,30,00,09,7.20
2013,04,30,00,10,7.20
2013,04,30,00,11,7.20
2013,04,30,00,12,7.20
2013,04,30,00,13,7.10
2013,04,30,00,14,7.10
2013,04,30,00,15,7.10
2013,04,30,00,16,7.10
2013,04,30,00,17,7.00
2013,04,30,00,18,7.00
2013,04,30,00,19,7.00
2013,04,30,00,20,7.00
2013,04,30,00,21,6.90
2013,04,30,00,22,6.90
2013,04,30,00,23,6.90
2013,04,30,00,24,6.90
2013,04,30,00,25,6.90
2013,04,30,00,26,6.90
2013,04,30,00,27,6.80
2013,04,30,00,28,6.80
2013,04,30,00,29,6.80
2013,04,30,00,30,6.80
2013,04,30,00,31,6.80
2013,04,30,00,32,6.80
2013,04,30,00,33,6.80
2013,04,30,00,34,6.80
2013,04,30,00,35,6.80
2013,04,30,00,36,6.70
2013,04,30,00,37,6.70
2013,04,30,00,38,6.70
2013,04,30,00,39,6.70
2013,04,30,00,40,6.70
2013,04,30,00,41,6.70
2013,04,30,00,42,6.70
2013,04,30,00,43,6.70
2013,04,30,00,44,6.60
2013,04,30,00,45,6.60
2013,04,30,00,46,6.60
2013,04,30,00,47,6.60
2013,04,30,00,48,6.60
2013,04,30,00,49,6.60
2013,04,30,00,50,6.60
2013,04,30,00,51,6.60
2013,04,30,00,52,6.60
2013,04,30,00,53,6.60
2013,04,30,00,54,6.60
2013,04,30,00,55,6.60
2013,04,30,00,56,6.60
2013,04,30,00,57,6.60
2013,04,30,00,58,6.60
2013,04,30,00,59,6.60
2013,04,30,01,00,6.60
2013,04,30,01,01,6.60
2013,04,30,01,02,6.60
2013,04,30,01,03,6.60
2013,04,30,01,04,6.60
2013,04,30,01,05,6.60
2013,04,30,01,06,6.60
2013,04,30,01,07,6.60
2013,04,30,01,08,6.60
2013,04,30,01,09,6.60
2013,04,30,01,10,6.60
2013,04,30,01,11,6.60
2013,04,30,01,12,6.60
2013,04,30,01,13,6.60
2013,04,30,01,14,6.60
2013,04,30,01,15,6.60
2013,04,30,01,16,6.60
2013,04,30,01,17,6.60
2013,04,30,01,18,6.60
2013,04,30,01,19,6.60
2013,04,30,01,20,6.50
2013,04,30,01,21,6.50
2013,04,30,01,22,6.50
2013,04,30,01,23,6.50
2013,04,30,01,24,6.50
2013,04,30,01,25,6.50
2013,04,30,01,26,6.50
2013,04,30,01,27,6.50
2013,04,30,01,28,6.50
2013,04,30,01,29,6.50
2013,04,30,01,30,6.50
2013,04,30,01,31,6.50
2013,04,30,01,32,6.50
2013,04,30,01,33,6.50
2013,04,30,01,34,6.50
2013,04,30,01,35,6.50
2013,04,30,01,36,6.50
2013,04,30,01,37,6.40
2013,04,30,01,38,6.40
2013,04,30,01,39,6.40
2013,04,30,01,40,6.40
2013,04,30,01,41,6.40
2013,04,30,01,42,6.40
2013,04,30,01,43,6.40
2013,04,30,01,44,6.40
2013,04,30,01,45,6.40
2013,04,30,01,46,6.40
2013,04,30,01,47,6.40
2013,04,30,01,48,6.40
2013,04,30,01,49,6.40
2013,04,30,01,50,6.40
2013,04,30,01,51,6.40
2013,04,30,01,52,6.40
2013,04,30,01,53,6.40
2013,04,30,01,54,6.40
2013,04,30,01,55,6.40
2013,04,30,01,56,6.40
2013,04,30,01,57,6.50
2013,04,30,01,58,6.50
2013,04,30,01,59,6.50
2013,04,30,02,00,6.50
2013,04,30,02,01,6.50
2013,04,30,02,02,6.60
2013,04,30,02,03,6.60
2013,04,30,02,04,6.60
2013,04,30,02,05,6.60
2013,04,30,02,06,6.60
2013,04,30,02,07,6.60
2013,04,30,02,08,6.60
2013,04,30,02,09,6.60
2013,04,30,02,10,6.60
2013,04,30,02,11,6.60
2013,04,30,02,12,6.60
2013,04,30,02,13,6.60
2013,04,30,02,14,6.60
2013,04,30,02,15,6.60
2013,04,30,02,16,6.60
2013,04,30,02,17,6.60
2013,04,30,02,18,6.60
2013,04,30,02,19,6.60
2013,04,30,02,20,6.60
2013,04,30,02,21,6.60
2013,04,30,02,22,6.60
2013,04,30,02,23,6.70
2013,04,30,02,24,6.70
2013,04,30,02,25,6.70
2013,04,30,02,26,6.70
2013,04,30,02,27,6.70
2013,04,30,02,28,6.70
2013,04,30,02,29,6.70
2013,04,30,02,30,6.70
2013,04,30,02,31,6.70
2013,04,30,02,32,6.70
2013,04,30,02,33,6.80
2013,04,30,02,34,6.80
2013,04,30,02,35,6.70
2013,04,30,02,36,6.70
2013,04,30,02,37,6.80
2013,04,30,02,38,6.70
2013,04,30,02,39,6.70
2013,04,30,02,40,6.70
2013,04,30,02,41,6.70
2013,04,30,02,42,6.70
2013,04,30,02,43,6.70
2013,04,30,02,44,6.70
2013,04,30,02,45,6.70
2013,04,30,02,46,6.70
2013,04,30,02,47,6.70
2013,04,30,02,48,6.70
2013,04,30,02,49,6.70
2013,04,30,02,50,6.70
2013,04,30,02,51,6.70
2013,04,30,02,52,6.70
2013,04,30,02,53,6.70
2013,04,30,02,54,6.70
2013,04,30,02,55,6.70
2013,04,30,02,56,6.70
2013,04,30,02,57,6.70
2013,04,30,02,58,6.70
2013,04,30,02,59,6.70
2013,04,30,03,00,6.70
2013,04,30,03,01,6.70
2013,04,30,03,02,6.70
2013,04,30,03,03,6.70
2013,04,30,03,04,6.70
2013,04,30,03,05,6.70
2013,04,30,03,06,6.70
2013,04,30,03,07,6.70
2013,04,30,03,08,6.80
2013,04,30,03,09,6.80
2013,04,30,03,10,6.80
2013,04,30,03,11,6.80
2013,04,30,03,12,6.80
2013,04,30,03,13,6.80
2013,04,30,03,14,6.80
2013,04,30,03,15,6.80
2013,04,30,03,16,6.80
2013,04,30,03,17,6.80
2013,04,30,03,18,6.80
2013,04,30,03,19,6.80
2013,04,30,03,20,6.80
2013,04,30,03,21,6.80
2013,04,30,03,22,6.80
2013,04,30,03,23,6.80
2013,04,30,03,24,6.90
2013,04,30,03,25,6.90
2013,04,30,03,26,6.90
2013,04,30,03,27,6.90
2013,04,30,03,28,6.90
2013,04,30,03,29,6.90
2013,04,30,03,30,6.90
2013,04,30,03,31,6.90
2013,04,30,03,32,6.90
2013,04,30,03,33,6.90
2013,04,30,03,34,6.90
2013,04,30,03,35,7.00
2013,04,30,03,36,7.00
2013,04,30,03,37,7.00
2013,04,30,03,38,7.00
2013,04,30,03,39,7.00
2013,04,30,03,40,7.00
2013,04,30,03,41,7.00
2013,04,30,03,42,7.00
2013,04,30,03,43,7.00
2013,04,30,03,44,7.00
2013,04,30,03,45,7.00
2013,04,30,03,46,7.00
2013,04,30,03,47,7.00
2013,04,30,03,48,7.00
2013,04,30,03,49,7.00
2013,04,30,03,50,7.00
2013,04,30,03,51,6.90
2013,04,30,03,52,6.90
2013,04,30,03,53,6.90
2013,04,30,03,54,6.90
2013,04,30,03,55,6.80
2013,04,30,03,56,6.80
2013,04,30,03,57,6.70
2013,04,30,03,58,6.70
2013,04,30,03,59,6.60
2013,04,30,04,00,6.50
2013,04,30,04,01,6.50
2013,04,30,04,02,6.40
2013,04,30,04,03,6.40
2013,04,30,04,04,6.40
2013,04,30,04,05,6.30
2013,04,30,04,06,6.30
2013,04,30,04,07,6.30
2013,04,30,04,08,6.30
2013,04,30,04,09,6.20
2013,04,30,04,10,6.20
2013,04,30,04,11,6.20
2013,04,30,04,12,6.20
2013,04,30,04,13,6.20
2013,04,30,04,14,6.10
2013,04,30,04,15,6.10
2013,04,30,04,16,6.10
2013,04,30,04,17,6.10
2013,04,30,04,18,6.10
2013,04,30,04,19,6.10
2013,04,30,04,20,6.10
2013,04,30,04,21,6.00
2013,04,30,04,22,6.00
2013,04,30,04,23,6.00
2013,04,30,04,24,6.00
2013,04,30,04,25,5.90
2013,04,30,04,26,5.90
2013,04,30,04,27,5.90
2013,04,30,04,28,5.90
2013,04,30,04,29,5.90
2013,04,30,04,30,5.80
2013,04,30,04,31,5.80
2013,04,30,04,32,5.80
2013,04,30,04,33,5.70
2013,04,30,04,34,5.70
2013,04,30,04,35,5.70
2013,04,30,04,36,5.70
2013,04,30,04,37,5.70
2013,04,30,04,38,5.70
2013,04,30,04,39,5.60
2013,04,30,04,40,5.60
2013,04,30,04,41,5.60
2013,04,30,04,42,5.60
2013,04,30,04,43,5.60
2013,04,30,04,44,5.60
2013,04,30,04,45,5.60
2013,04,30,04,46,5.60
2013,04,30,04,47,5.60
2013,04,30,04,48,5.50
2013,04,30,04,49,5.50
2013,04,30,04,50,5.50
2013,04,30,04,51,5.50
2013,04,30,04,52,5.50
2013,04,30,04,53,5.40
2013,04,30,04,54,5.40
2013,04,30,04,55,5.40
2013,04,30,04,56,5.40
2013,04,30,04,57,5.40
2013,04,30,04,58,5.40
2013,04,30,04,59,5.40
2013,04,30,05,00,5.40
2013,04,30,05,01,5.40
2013,04,30,05,02,5.40
2013,04,30,05,03,5.40
2013,04,30,05,04,5.50
2013,04,30,05,05,5.50
2013,04,30,05,06,5.50
2013,04,30,05,07,5.50
2013,04,30,05,08,5.50
2013,04,30,05,09,5.50
2013,04,30,05,10,5.50
2013,04,30,05,11,5.50
2013,04,30,05,12,5.50
2013,04,30,05,13,5.40
2013,04,30,05,14,5.40
2013,04,30,05,15,5.40
2013,04,30,05,16,5.40
2013,04,30,05,17,5.30
2013,04,30,05,18,5.30
2013,04,30,05,19,5.30
2013,04,30,05,20,5.30
2013,04,30,05,21,5.30
2013,04,30,05,22,5.20
2013,04,30,05,23,5.20
2013,04,30,05,24,5.20
2013,04,30,05,25,5.10
2013,04,30,05,26,5.10
2013,04,30,05,27,5.10
2013,04,30,05,28,5.10
2013,04,30,05,29,5.00
2013,04,30,05,30,5.00
2013,04,30,05,31,5.00
2013,04,30,05,32,4.90
2013,04,30,05,33,4.90
2013,04,30,05,34,4.90
2013,04,30,05,35,4.90
2013,04,30,05,36,4.80
2013,04,30,05,37,4.80
2013,04,30,05,38,4.80
2013,04,30,05,39,4.70
2013,04,30,05,40,4.70
2013,04,30,05,41,4.60
2013,04,30,05,42,4.60
2013,04,30,05,43,4.50
2013,04,30,05,44,4.50
2013,04,30,05,45,4.50
2013,04,30,05,46,4.40
2013,04,30,05,47,4.40
2013,04,30,05,48,4.30
2013,04,30,05,49,4.30
2013,04,30,05,50,4.30
2013,04,30,05,51,4.30
2013,04,30,05,52,4.30
2013,04,30,05,53,4.20
2013,04,30,05,54,4.20
2013,04,30,05,55,4.20
2013,04,30,05,56,4.20
2013,04,30,05,57,4.10
2013,04,30,05,58,4.10
2013,04,30,05,59,4.10
2013,04,30,06,00,4.10
2013,04,30,06,01,4.10
2013,04,30,06,02,4.10
2013,04,30,06,03,4.10
2013,04,30,06,04,4.10
2013,04,30,06,05,4.10
2013,04,30,06,06,4.10
2013,04,30,06,07,4.10
2013,04,30,06,08,4.00
2013,04,30,06,09,4.00
2013,04,30,06,10,4.00
2013,04,30,06,11,4.00
2013,04,30,06,12,3.90
2013,04,30,06,13,3.90
2013,04,30,06,14,3.90
2013,04,30,06,15,3.90
2013,04,30,06,16,3.90
2013,04,30,06,17,3.90
2013,04,30,06,18,3.90
2013,04,30,06,19,3.90
2013,04,30,06,20,3.90
2013,04,30,06,21,3.90
2013,04,30,06,22,4.00
2013,04,30,06,23,4.00
2013,04,30,06,24,4.00
2013,04,30,06,25,4.10
2013,04,30,06,26,4.10
2013,04,30,06,27,4.10
2013,04,30,06,28,4.10
2013,04,30,06,29,4.10
2013,04,30,06,30,4.10
2013,04,30,06,31,4.10
2013,04,30,06,32,4.10
2013,04,30,06,33,4.10
2013,04,30,06,34,4.10
2013,04,30,06,35,4.10
2013,04,30,06,36,4.10
2013,04,30,06,37,4.10
2013,04,30,06,38,4.20
2013,04,30,06,39,4.20
2013,04,30,06,40,4.20
2013,04,30,06,41,4.30
2013,04,30,06,42,4.30
2013,04,30,06,43,4.40
2013,04,30,06,44,4.40
2013,04,30,06,45,4.50
2013,04,30,06,46,4.60
2013,04,30,06,47,4.70
2013,04,30,06,48,4.70
2013,04,30,06,49,4.80
2013,04,30,06,50,4.90
2013,04,30,06,51,4.90
2013,04,30,06,52,5.00
2013,04,30,06,53,5.10
2013,04,30,06,54,5.10
2013,04,30,06,55,5.20
2013,04,30,06,56,5.20
2013,04,30,06,57,5.30
2013,04,30,06,58,5.40
2013,04,30,06,59,5.40
2013,04,30,07,00,5.50
2013,04,30,07,01,5.60
2013,04,30,07,02,5.60
2013,04,30,07,03,5.70
2013,04,30,07,04,5.70
2013,04,30,07,05,5.70
2013,04,30,07,06,5.80
2013,04,30,07,07,5.80
2013,04,30,07,08,5.80
2013,04,30,07,09,5.90
2013,04,30,07,10,6.00
2013,04,30,07,11,6.00
2013,04,30,07,12,6.10
2013,04,30,07,13,6.20
2013,04,30,07,14,6.20
2013,04,30,07,15,6.30
2013,04,30,07,16,6.30
2013,04,30,07,17,6.40
2013,04,30,07,18,6.50
2013,04,30,07,19,6.50
2013,04,30,07,20,6.60
2013,04,30,07,21,6.60
2013,04,30,07,22,6.60
2013,04,30,07,23,6.70
2013,04,30,07,24,6.80
2013,04,30,07,25,6.80
2013,04,30,07,26,6.80
2013,04,30,07,27,6.80
2013,04,30,07,28,6.90
2013,04,30,07,29,6.90
2013,04,30,07,30,6.90
2013,04,30,07,31,6.90
2013,04,30,07,32,6.90
2013,04,30,07,33,7.00
2013,04,30,07,34,7.00
2013,04,30,07,35,7.00
2013,04,30,07,36,7.10
2013,04,30,07,37,7.10
2013,04,30,07,38,7.20
2013,04,30,07,39,7.20
2013,04,30,07,40,7.20
2013,04,30,07,41,7.20
2013,04,30,07,42,7.20
2013,04,30,07,43,7.20
2013,04,30,07,44,7.20
2013,04,30,07,45,7.20
2013,04,30,07,46,7.20
2013,04,30,07,47,7.20
2013,04,30,07,48,7.20
2013,04,30,07,49,7.20
2013,04,30,07,50,7.20
2013,04,30,07,51,7.20
2013,04,30,07,52,7.20
2013,04,30,07,53,7.20
2013,04,30,07,54,7.20
2013,04,30,07,55,7.30
2013,04,30,07,56,7.30
2013,04,30,07,57,7.40
2013,04,30,07,58,7.40
2013,04,30,07,59,7.40
2013,04,30,08,00,7.50
2013,04,30,08,01,7.50
2013,04,30,08,02,7.60
2013,04,30,08,03,7.60
2013,04,30,08,04,7.70
2013,04,30,08,05,7.70
2013,04,30,08,06,7.80
2013,04,30,08,07,7.80
2013,04,30,08,08,7.80
2013,04,30,08,09,7.80
2013,04,30,08,10,7.80
2013,04,30,08,11,7.80
2013,04,30,08,12,7.90
2013,04,30,08,13,7.90
2013,04,30,08,14,8.00
2013,04,30,08,15,8.00
2013,04,30,08,16,8.10
2013,04,30,08,17,8.20
2013,04,30,08,18,8.30
2013,04,30,08,19,8.30
2013,04,30,08,20,8.30
2013,04,30,08,21,8.40
2013,04,30,08,22,8.40
2013,04,30,08,23,8.40
2013,04,30,08,24,8.40
2013,04,30,08,25,8.40
2013,04,30,08,26,8.40
2013,04,30,08,27,8.40
2013,04,30,08,28,8.40
2013,04,30,08,29,8.40
2013,04,30,08,30,8.40
2013,04,30,08,31,8.40
2013,04,30,08,32,8.40
2013,04,30,08,33,8.40
2013,04,30,08,34,8.50
2013,04,30,08,35,8.60
2013,04,30,08,36,8.70
2013,04,30,08,37,8.80
2013,04,30,08,38,8.90
2013,04,30,08,39,8.90
2013,04,30,08,40,9.00
2013,04,30,08,41,9.00
2013,04,30,08,42,9.10
2013,04,30,08,43,9.10
2013,04,30,08,44,9.20
2013,04,30,08,45,9.20
2013,04,30,08,46,9.20
2013,04,30,08,47,9.20
2013,04,30,08,48,9.20
2013,04,30,08,49,9.30
2013,04,30,08,50,9.30
2013,04,30,08,51,9.30
2013,04,30,08,52,9.30
2013,04,30,08,53,9.30
2013,04,30,08,54,9.30
2013,04,30,08,55,9.30
2013,04,30,08,56,9.30
2013,04,30,08,57,9.30
2013,04,30,08,58,9.30
2013,04,30,08,59,9.30
2013,04,30,09,00,9.30
2013,04,30,09,01,9.30
2013,04,30,09,02,9.40
2013,04,30,09,03,9.40
2013,04,30,09,04,9.40
2013,04,30,09,05,9.40
2013,04,30,09,06,9.30
2013,04,30,09,07,9.30
2013,04,30,09,08,9.30
2013,04,30,09,09,9.30
2013,04,30,09,10,9.30
2013,04,30,09,11,9.30
2013,04,30,09,12,9.30
2013,04,30,09,13,9.40
2013,04,30,09,14,9.40
2013,04,30,09,15,9.50
2013,04,30,09,16,9.60
2013,04,30,09,17,9.70
2013,04,30,09,18,9.60
2013,04,30,09,19,9.60
2013,04,30,09,20,9.50
2013,04,30,09,21,9.40
2013,04,30,09,22,9.40
2013,04,30,09,23,9.40
2013,04,30,09,24,9.30
2013,04,30,09,25,9.30
2013,04,30,09,26,9.30
2013,04,30,09,27,9.20
2013,04,30,09,28,9.20
2013,04,30,09,29,9.30
2013,04,30,09,30,9.40
2013,04,30,09,31,9.50
2013,04,30,09,32,9.60
2013,04,30,09,33,9.60
2013,04,30,09,34,9.70
2013,04,30,09,35,9.70
2013,04,30,09,36,9.80
2013,04,30,09,37,9.90
2013,04,30,09,38,10.00
2013,04,30,09,39,10.10
2013,04,30,09,40,10.10
2013,04,30,09,41,10.20
2013,04,30,09,42,10.30
2013,04,30,09,43,10.40
2013,04,30,09,44,10.40
2013,04,30,09,45,10.40
2013,04,30,09,46,10.30
2013,04,30,09,47,10.30
2013,04,30,09,48,10.20
2013,04,30,09,49,10.10
2013,04,30,09,50,10.00
2013,04,30,09,51,10.00
2013,04,30,09,52,10.10
2013,04,30,09,53,10.20
2013,04,30,09,54,10.20
2013,04,30,09,55,10.30
2013,04,30,09,56,10.20
2013,04,30,09,57,10.10
2013,04,30,09,58,10.10
2013,04,30,09,59,10.10
2013,04,30,10,00,10.00
2013,04,30,10,01,10.00
2013,04,30,10,02,10.00
2013,04,30,10,03,10.10
2013,04,30,10,04,10.20
2013,04,30,10,05,10.20
2013,04,30,10,06,10.30
2013,04,30,10,07,10.40
2013,04,30,10,08,10.50
2013,04,30,10,09,10.60
2013,04,30,10,10,10.70
2013,04,30,10,11,10.80
2013,04,30,10,12,10.80
2013,04,30,10,13,10.80
2013,04,30,10,14,10.80
2013,04,30,10,15,10.80
2013,04,30,10,16,10.80
2013,04,30,10,17,10.80
2013,04,30,10,18,10.80
2013,04,30,10,19,10.80
2013,04,30,10,20,10.70
2013,04,30,10,21,10.60
2013,04,30,10,22,10.50
2013,04,30,10,23,10.40
2013,04,30,10,24,10.30
2013,04,30,10,25,10.30
2013,04,30,10,26,10.20
2013,04,30,10,27,10.10
2013,04,30,10,28,10.10
2013,04,30,10,29,10.20
2013,04,30,10,30,10.20
2013,04,30,10,31,10.10
2013,04,30,10,32,10.10
2013,04,30,10,33,10.10
2013,04,30,10,34,10.20
2013,04,30,10,35,10.20
2013,04,30,10,36,10.30
2013,04,30,10,37,10.20
2013,04,30,10,38,10.20
2013,04,30,10,39,10.20
2013,04,30,10,40,10.20
2013,04,30,10,41,10.20
2013,04,30,10,42,10.30
2013,04,30,10,43,10.30
2013,04,30,10,44,10.20
2013,04,30,10,45,10.10
2013,04,30,10,46,9.90
2013,04,30,10,47,9.80
2013,04,30,10,48,9.70
2013,04,30,10,49,9.70
2013,04,30,10,50,9.60
2013,04,30,10,51,9.60
2013,04,30,10,52,9.60
2013,04,30,10,53,9.60
2013,04,30,10,54,9.60
2013,04,30,10,55,9.60
2013,04,30,10,56,9.60
2013,04,30,10,57,9.70
2013,04,30,10,58,9.80
2013,04,30,10,59,9.80
2013,04,30,11,00,9.80
2013,04,30,11,01,9.90
2013,04,30,11,02,10.00
2013,04,30,11,03,10.00
2013,04,30,11,04,10.10
2013,04,30,11,05,10.20
2013,04,30,11,06,10.20
2013,04,30,11,07,10.30
2013,04,30,11,08,10.40
2013,04,30,11,09,10.50
2013,04,30,11,10,10.60
2013,04,30,11,11,10.70
2013,04,30,11,12,10.50
2013,04,30,11,13,10.50
2013,04,30,11,14,10.40
2013,04,30,11,15,10.30
2013,04,30,11,16,10.30
2013,04,30,11,17,10.10
2013,04,30,11,18,9.90
2013,04,30,11,19,9.80
2013,04,30,11,20,9.90
2013,04,30,11,21,10.10
2013,04,30,11,22,10.30
2013,04,30,11,23,10.40
2013,04,30,11,24,10.50
2013,04,30,11,25,10.60
2013,04,30,11,26,10.60
2013,04,30,11,27,10.70
2013,04,30,11,28,10.70
2013,04,30,11,29,10.80
2013,04,30,11,30,10.80
2013,04,30,11,31,10.90
2013,04,30,11,32,10.90
2013,04,30,11,33,10.90
2013,04,30,11,34,10.80
2013,04,30,11,35,10.80
2013,04,30,11,36,10.80
2013,04,30,11,37,10.70
2013,04,30,11,38,10.70
2013,04,30,11,39,10.70
2013,04,30,11,40,10.80
2013,04,30,11,41,10.80
2013,04,30,11,42,10.80
2013,04,30,11,43,10.80
2013,04,30,11,44,10.80
2013,04,30,11,45,10.80
2013,04,30,11,46,10.80
2013,04,30,11,47,10.80
2013,04,30,11,48,10.80
2013,04,30,11,49,10.90
2013,04,30,11,50,10.90
2013,04,30,11,51,11.00
2013,04,30,11,52,11.10
2013,04,30,11,53,11.10
2013,04,30,11,54,11.20
2013,04,30,11,55,11.20
2013,04,30,11,56,11.20
2013,04,30,11,57,11.30
2013,04,30,11,58,11.30
2013,04,30,11,59,11.20
2013,04,30,12,00,11.20
2013,04,30,12,01,11.10
2013,04,30,12,02,11.00
2013,04,30,12,03,10.80
2013,04,30,12,04,10.70
2013,04,30,12,05,10.60
2013,04,30,12,06,10.40
2013,04,30,12,07,10.30
2013,04,30,12,08,10.20
2013,04,30,12,09,10.10
2013,04,30,12,10,10.00
2013,04,30,12,11,9.90
2013,04,30,12,12,9.80
2013,04,30,12,13,9.90
2013,04,30,12,14,10.00
2013,04,30,12,15,10.20
2013,04,30,12,16,10.40
2013,04,30,12,17,10.50
2013,04,30,12,18,10.60
2013,04,30,12,19,10.60
2013,04,30,12,20,10.70
2013,04,30,12,21,10.70
2013,04,30,12,22,10.60
2013,04,30,12,23,10.40
2013,04,30,12,24,10.20
2013,04,30,12,25,10.00
2013,04,30,12,26,10.00
2013,04,30,12,27,9.90
2013,04,30,12,28,10.00
2013,04,30,12,29,10.10
2013,04,30,12,30,10.10
2013,04,30,12,31,10.10
2013,04,30,12,32,10.10
2013,04,30,12,33,10.10
2013,04,30,12,34,10.00
2013,04,30,12,35,10.00
2013,04,30,12,36,9.90
2013,04,30,12,37,10.00
2013,04,30,12,38,10.00
2013,04,30,12,39,10.00
2013,04,30,12,40,10.00
2013,04,30,12,41,10.00
2013,04,30,12,42,10.10
2013,04,30,12,43,10.30
2013,04,30,12,44,10.40
2013,04,30,12,45,10.50
2013,04,30,12,46,10.60
2013,04,30,12,47,10.60
2013,04,30,12,48,10.70
2013,04,30,12,49,10.80
2013,04,30,12,50,10.80
2013,04,30,12,51,10.80
2013,04,30,12,52,10.80
2013,04,30,12,53,10.70
2013,04,30,12,54,10.80
2013,04,30,12,55,10.80
2013,04,30,12,56,10.70
2013,04,30,12,57,10.80
2013,04,30,12,58,10.70
2013,04,30,12,59,10.70
2013,04,30,13,00,10.80
2013,04,30,13,01,10.80
2013,04,30,13,02,10.70
2013,04,30,13,03,10.70
2013,04,30,13,04,10.70
2013,04,30,13,05,10.80
2013,04,30,13,06,10.80
2013,04,30,13,07,10.90
2013,04,30,13,08,11.00
2013,04,30,13,09,11.10
2013,04,30,13,10,11.20
2013,04,30,13,11,11.20
2013,04,30,13,12,11.30
2013,04,30,13,13,11.30
2013,04,30,13,14,11.40
2013,04,30,13,15,11.50
2013,04,30,13,16,11.50
2013,04,30,13,17,11.50
2013,04,30,13,18,11.50
2013,04,30,13,19,11.60
2013,04,30,13,20,11.60
2013,04,30,13,21,11.70
2013,04,30,13,22,11.70
2013,04,30,13,23,11.70
2013,04,30,13,24,11.80
2013,04,30,13,25,11.80
2013,04,30,13,26,11.90
2013,04,30,13,27,12.00
2013,04,30,13,28,12.00
2013,04,30,13,29,12.00
2013,04,30,13,30,12.10
2013,04,30,13,31,12.10
2013,04,30,13,32,12.10
2013,04,30,13,33,12.10
2013,04,30,13,34,12.10
2013,04,30,13,35,12.10
2013,04,30,13,36,12.10
2013,04,30,13,37,12.10
2013,04,30,13,38,12.10
2013,04,30,13,39,12.10
2013,04,30,13,40,12.10
2013,04,30,13,41,12.00
2013,04,30,13,42,11.90
2013,04,30,13,43,11.80
2013,04,30,13,44,11.80
2013,04,30,13,45,11.80
2013,04,30,13,46,11.80
2013,04,30,13,47,11.90
2013,04,30,13,48,12.00
2013,04,30,13,49,12.00
2013,04,30,13,50,11.90
2013,04,30,13,51,11.80
2013,04,30,13,52,11.80
2013,04,30,13,53,11.90
2013,04,30,13,54,12.00
2013,04,30,13,55,12.10
2013,04,30,13,56,12.20
2013,04,30,13,57,12.20
2013,04,30,13,58,12.30
2013,04,30,13,59,12.30
2013,04,30,14,00,12.30
2013,04,30,14,01,12.30
2013,04,30,14,02,12.20
2013,04,30,14,03,12.30
2013,04,30,14,04,12.30
2013,04,30,14,05,12.40
2013,04,30,14,06,12.40
2013,04,30,14,07,12.50
2013,04,30,14,08,12.50
2013,04,30,14,09,12.50
2013,04,30,14,10,12.60
2013,04,30,14,11,12.60
2013,04,30,14,12,12.70
2013,04,30,14,13,12.70
2013,04,30,14,14,12.80
2013,04,30,14,15,12.70
2013,04,30,14,16,12.80
2013,04,30,14,17,12.80
2013,04,30,14,18,12.80
2013,04,30,14,19,12.70
2013,04,30,14,20,12.70
2013,04,30,14,21,12.60
2013,04,30,14,22,12.60
2013,04,30,14,23,12.60
2013,04,30,14,24,12.70
2013,04,30,14,25,12.80
2013,04,30,14,26,12.90
2013,04,30,14,27,12.90
2013,04,30,14,28,12.90
2013,04,30,14,29,13.00
2013,04,30,14,30,13.00
2013,04,30,14,31,13.10
2013,04,30,14,32,13.10
2013,04,30,14,33,13.00
2013,04,30,14,34,13.00
2013,04,30,14,35,12.80
2013,04,30,14,36,12.80
2013,04,30,14,37,12.80
2013,04,30,14,38,12.90
2013,04,30,14,39,12.90
2013,04,30,14,40,12.80
2013,04,30,14,41,12.80
2013,04,30,14,42,12.90
2013,04,30,14,43,12.90
2013,04,30,14,44,12.90
2013,04,30,14,45,13.00
2013,04,30,14,46,13.00
2013,04,30,14,47,13.10
2013,04,30,14,48,13.10
2013,04,30,14,49,13.10
2013,04,30,14,50,13.20
2013,04,30,14,51,13.20
2013,04,30,14,52,13.20
2013,04,30,14,53,13.20
2013,04,30,14,54,13.20
2013,04,30,14,55,13.20
2013,04,30,14,56,13.20
2013,04,30,14,57,13.20
2013,04,30,14,58,13.10
2013,04,30,14,59,13.10
2013,04,30,15,00,13.10
2013,04,30,15,01,13.10
2013,04,30,15,02,13.20
2013,04,30,15,03,13.20
2013,04,30,15,04,13.30
2013,04,30,15,05,13.10
2013,04,30,15,06,12.90
2013,04,30,15,07,12.80
2013,04,30,15,08,12.80
2013,04,30,15,09,12.90
2013,04,30,15,10,13.00
2013,04,30,15,11,13.00
2013,04,30,15,12,13.00
2013,04,30,15,13,13.10
2013,04,30,15,14,13.10
2013,04,30,15,15,13.10
2013,04,30,15,16,13.10
2013,04,30,15,17,13.20
2013,04,30,15,18,13.20
2013,04,30,15,19,13.20
2013,04,30,15,20,13.20
2013,04,30,15,21,13.30
2013,04,30,15,22,13.20
2013,04,30,15,23,13.20
2013,04,30,15,24,13.00
2013,04,30,15,25,12.70
2013,04,30,15,26,12.50
2013,04,30,15,27,12.40
2013,04,30,15,28,12.30
2013,04,30,15,29,12.20
2013,04,30,15,30,12.20
2013,04,30,15,31,12.20
2013,04,30,15,32,12.20
2013,04,30,15,33,12.20
2013,04,30,15,34,12.20
2013,04,30,15,35,12.30
2013,04,30,15,36,12.30
2013,04,30,15,37,12.30
2013,04,30,15,38,12.30
2013,04,30,15,39,12.30
2013,04,30,15,40,12.30
2013,04,30,15,41,12.30
2013,04,30,15,42,12.30
2013,04,30,15,43,12.30
2013,04,30,15,44,12.40
2013,04,30,15,45,12.40
2013,04,30,15,46,12.50
2013,04,30,15,47,12.50
2013,04,30,15,48,12.60
2013,04,30,15,49,12.60
2013,04,30,15,50,12.60
2013,04,30,15,51,12.70
2013,04,30,15,52,12.80
2013,04,30,15,53,12.80
2013,04,30,15,54,12.80
2013,04,30,15,55,12.80
2013,04,30,15,56,12.90
2013,04,30,15,57,13.00
2013,04,30,15,58,13.10
2013,04,30,15,59,13.10
2013,04,30,16,00,13.10
2013,04,30,16,01,13.10
2013,04,30,16,02,13.10
2013,04,30,16,03,13.10
2013,04,30,16,04,13.10
2013,04,30,16,05,13.10
2013,04,30,16,06,12.90
2013,04,30,16,07,12.80
2013,04,30,16,08,12.80
2013,04,30,16,09,12.70
2013,04,30,16,10,12.50
2013,04,30,16,11,12.50
2013,04,30,16,12,12.60
2013,04,30,16,13,12.60
2013,04,30,16,14,12.60
2013,04,30,16,15,12.60
2013,04,30,16,16,12.60
2013,04,30,16,17,12.60
2013,04,30,16,18,12.70
2013,04,30,16,19,12.70
2013,04,30,16,20,12.70
2013,04,30,16,21,12.70
2013,04,30,16,22,12.70
2013,04,30,16,23,12.70
2013,04,30,16,24,12.60
2013,04,30,16,25,12.60
2013,04,30,16,26,12.70
2013,04,30,16,27,12.70
2013,04,30,16,28,12.70
2013,04,30,16,29,12.60
2013,04,30,16,30,12.60
2013,04,30,16,31,12.60
2013,04,30,16,32,12.60
2013,04,30,16,33,12.60
2013,04,30,16,34,12.50
2013,04,30,16,35,12.50
2013,04,30,16,36,12.60
2013,04,30,16,37,12.60
2013,04,30,16,38,12.60
2013,04,30,16,39,12.60
2013,04,30,16,40,12.70
2013,04,30,16,41,12.70
2013,04,30,16,42,12.60
2013,04,30,16,43,12.50
2013,04,30,16,44,12.50
2013,04,30,16,45,12.40
2013,04,30,16,46,12.40
2013,04,30,16,47,12.30
2013,04,30,16,48,12.30
2013,04,30,16,49,12.30
2013,04,30,16,50,12.30
2013,04,30,16,51,12.20
2013,04,30,16,52,12.20
2013,04,30,16,53,12.20
2013,04,30,16,54,12.20
2013,04,30,16,55,12.20
2013,04,30,16,56,12.20
2013,04,30,16,57,12.20
2013,04,30,16,58,12.20
2013,04,30,16,59,12.20
2013,04,30,17,00,12.20
2013,04,30,17,01,12.20
2013,04,30,17,02,12.20
2013,04,30,17,03,12.10
2013,04,30,17,04,12.10
2013,04,30,17,05,12.10
2013,04,30,17,06,12.00
2013,04,30,17,07,12.00
2013,04,30,17,08,12.00
2013,04,30,17,09,12.10
2013,04,30,17,10,12.10
2013,04,30,17,11,12.00
2013,04,30,17,12,12.00
2013,04,30,17,13,11.90
2013,04,30,17,14,11.90
2013,04,30,17,15,11.90
2013,04,30,17,16,11.90
2013,04,30,17,17,11.80
2013,04,30,17,18,11.80
2013,04,30,17,19,11.70
2013,04,30,17,20,11.70
2013,04,30,17,21,11.60
2013,04,30,17,22,11.60
2013,04,30,17,23,11.60
2013,04,30,17,24,11.60
2013,04,30,17,25,11.60
2013,04,30,17,26,11.60
2013,04,30,17,27,11.60
2013,04,30,17,28,11.50
2013,04,30,17,29,11.60
2013,04,30,17,30,11.60
2013,04,30,17,31,11.60
2013,04,30,17,32,11.60
2013,04,30,17,33,11.60
2013,04,30,17,34,11.60
2013,04,30,17,35,11.60
2013,04,30,17,36,11.60
2013,04,30,17,37,11.60
2013,04,30,17,38,11.50
2013,04,30,17,39,11.50
2013,04,30,17,40,11.40
2013,04,30,17,41,11.30
2013,04,30,17,42,11.30
2013,04,30,17,43,11.30
2013,04,30,17,44,11.30
2013,04,30,17,45,11.30